Weather History for KFOE - March, 2014

Change the Weather History Date:

Saturday, March 15, 2014

  Actual Average Record
Temperature  
Mean Temperature 52 °F -  
Max Temperature 73 °F 54 °F 86 °F (2013)
Min Temperature 30 °F 31 °F 5 °F (1949)
Degree Days  
Heating Degree Days 14    
Growing Degree Days 2 (Base 50)    
Moisture  
Dew Point 36 °F    
Average Humidity 53    
Maximum Humidity 77    
Minimum Humidity 26    
Precipitation  
Precipitation 0.05 in - - ()
Sea Level Pressure  
Sea Level Pressure 29.86 in    
Wind  
Wind Speed 8 mph (South)    
Max Wind Speed 24 mph    
Max Gust Speed 36 mph    
Visibility 10 miles    
Events Rain , Thunderstorm    
Averages and records for this station are not official NWS values.
T = Trace of Precipitation, MM = Missing Value Source: NWS Daily Summary

Daily Weather History Graph

Daily Weather History Graph

Search for Another Location

Airport or City:

Trip Planner

Search our weather history database for the weather conditions in past years. The results will help you decide how hot, cold, wet, or windy it might be!

Date:

Astronomy

Mar. 15, 2014 Rise Set
Actual Time 7:33 AM CDT 7:29 PM CDT
Civil Twilight 7:07 AM CDT 7:56 PM CDT
Nautical Twilight 6:36 AM CDT 8:27 PM CDT
Astronomical Twilight 6:05 AM CDT 8:58 PM CDT
Moon 6:50 PM CDT (3/15) 6:46 AM CDT (3/15)
Length of Visible Light 12h 48m
Length of Day
11h 55m
Waxing Gibbous, 99% of the Moon is Illuminated
Mar 15
Waxing Gibbous
Mar 16
Full
Mar 23
Last Quarter
Mar 30
New
Apr 7
First Quarter

Hourly Weather History & Observations

Time (CDT) Temp. Windchill Dew Point Humidity Pressure Visibility Wind Dir Wind Speed Gust Speed Precip Events Conditions
12:53 AM 34.0 °F 31.0 °F 21.9 °F 61% 29.99 in 10.0 mi SSW 3.5 mph - N/A   Clear
1:53 AM 33.1 °F - 21.9 °F 64% 29.99 in 10.0 mi Calm Calm - N/A   Clear
2:53 AM 30.9 °F 27.5 °F 21.0 °F 67% 29.98 in 10.0 mi SSE 3.5 mph - N/A   Clear
3:53 AM 30.0 °F - 21.0 °F 69% 29.96 in 10.0 mi Calm Calm - N/A   Clear
4:53 AM 30.9 °F 25.2 °F 21.0 °F 67% 29.93 in 10.0 mi SSE 5.8 mph - N/A   Clear
5:53 AM 33.1 °F 28.7 °F 21.0 °F 61% 29.92 in 10.0 mi SE 4.6 mph - N/A   Clear
6:53 AM 32.0 °F 27.5 °F 21.0 °F 64% 29.92 in 10.0 mi SSE 4.6 mph - N/A   Clear
7:53 AM 39.0 °F 33.4 °F 24.1 °F 55% 29.91 in 10.0 mi South 8.1 mph - N/A   Clear
8:53 AM 45.0 °F 39.7 °F 27.0 °F 49% 29.91 in 10.0 mi South 10.4 mph - N/A   Clear
9:53 AM 54.0 °F - 28.0 °F 37% 29.90 in 10.0 mi SSE 12.7 mph - N/A   Clear
10:53 AM 62.1 °F - 34.0 °F 35% 29.88 in 10.0 mi South 12.7 mph - N/A   Clear
11:53 AM 66.9 °F - 37.0 °F 33% 29.87 in 10.0 mi South 13.8 mph - N/A   Clear
12:53 PM 70.0 °F - 36.0 °F 29% 29.86 in 10.0 mi SSW 18.4 mph - N/A   Clear
1:53 PM 72.0 °F - 37.0 °F 28% 29.83 in 10.0 mi SSW 18.4 mph 23.0 mph N/A   Clear
2:53 PM 73.9 °F - 37.0 °F 26% 29.80 in 10.0 mi South 16.1 mph 20.7 mph N/A   Clear
3:53 PM 72.0 °F - 39.0 °F 30% 29.78 in 10.0 mi South 15.0 mph 18.4 mph N/A   Scattered Clouds
4:53 PM 72.0 °F - 39.0 °F 30% 29.75 in 10.0 mi SE 8.1 mph - N/A   Clear
5:53 PM 70.0 °F - 39.0 °F 32% 29.76 in 10.0 mi SE 10.4 mph - N/A   Clear
6:39 PM 68.0 °F - 41.0 °F 37% 29.77 in 10.0 mi SSE 10.4 mph - N/A Thunderstorm Partly Cloudy
6:53 PM 66.9 °F - 41.0 °F 39% 29.78 in 10.0 mi SSE 11.5 mph - N/A Thunderstorm Mostly Cloudy
7:23 PM 64.9 °F - 43.0 °F 45% 29.79 in 10.0 mi West 11.5 mph 16.1 mph 0.00 in Rain , Thunderstorm Light Thunderstorms and Rain
7:33 PM 63.0 °F - 43.0 °F 48% 29.81 in 10.0 mi WSW 15.0 mph - 0.00 in Rain Light Rain
7:50 PM 60.8 °F - 42.8 °F 52% 29.82 in 7.0 mi WSW 6.9 mph 21.9 mph 0.01 in Rain , Thunderstorm Rain
7:53 PM 60.1 °F - 44.1 °F 55% 29.81 in 6.0 mi SW 9.2 mph 21.9 mph 0.02 in Rain , Thunderstorm Light Rain
8:19 PM 57.0 °F - 48.9 °F 74% 29.80 in 10.0 mi SW 17.3 mph 25.3 mph 0.02 in Rain , Thunderstorm Light Rain
8:26 PM 57.0 °F - 48.9 °F 74% 29.81 in 10.0 mi SW 12.7 mph 25.3 mph 0.02 in Thunderstorm Overcast
8:49 PM 55.4 °F - 48.2 °F 77% 29.84 in 10.0 mi ENE 5.8 mph - 0.02 in   Scattered Clouds
8:53 PM 57.0 °F - 48.9 °F 74% 29.85 in 10.0 mi East 6.9 mph - 0.02 in Thunderstorm Scattered Clouds
9:14 PM 57.0 °F - 46.9 °F 69% 29.84 in 10.0 mi South 8.1 mph - N/A   Mostly Cloudy
9:53 PM 55.9 °F - 46.9 °F 72% 29.83 in 10.0 mi ESE 11.5 mph - N/A   Mostly Cloudy
10:53 PM 51.1 °F - 43.0 °F 74% 29.90 in 10.0 mi North 16.1 mph 26.5 mph 0.01 in Rain Light Rain
11:53 PM 46.9 °F - 35.1 °F 63% 29.94 in 10.0 mi NNE 24.2 mph 35.7 mph 0.00 in   Scattered Clouds